Regional Weather Roundup
Issued by NWS

Home | Current Version | Previous Version | Graphics & Text | Print | Product List | Glossary Off
Versions: 1 2 3 4 5 6 7 8 9 10 11 12 13 14 15 16 17 18 19 20 21 22 23 24 25 26 27 28 29 30 31 32 33 34 35 36 37 38 39 40 41 42 43 44 45 46 47 48 49 50

000
ASUS43 KFSD 240310
RWRSD

WEATHER ROUNDUP FOR SOUTH DAKOTA
NATIONAL WEATHER SERVICE SIOUX FALLS SD
1000 PM CDT SAT SEP 23 2017

NOTE: "FAIR" INDICATES FEW OR NO CLOUDS BELOW 12,000 FEET WITH NO
SIGNIFICANT WEATHER AND/OR OBSTRUCTIONS TO VISIBILITY.


SDZ001>005-009-010-012>017-240400-
NORTHWEST AND NORTH CENTRAL SOUTH DAKOTA

CITY           SKY/WX    TMP DP  RH WIND       PRES   REMARKS
BUFFALO          N/A     45  44  97 NE13      30.01R
FAITH            N/A     47  47 100 N14       30.02F
MOBRIDGE       CLOUDY    54  52  93 N3        29.99F
$$

SDZ012>016-024>037-041>051-057-063-072>074-240400-
SOUTHWEST AND SOUTH CENTRAL SOUTH DAKOTA

CITY           SKY/WX    TMP DP  RH WIND       PRES   REMARKS
RAPID CTY ARPT LGT RAIN  45  45 100 N12       30.04S FOG
PIERRE         CLOUDY    51  50  96 NW8       29.94F
CUSTER         CLOUDY    40  38  93 VRB3      30.03R
ELLSWORTH AFB  LGT RAIN  46  46 100 N13       30.03F FOG
PHILIP         LGT RAIN  50  50 100 N9        29.97F
PINE RIDGE     CLOUDY    47  46  97 NW3       30.02R
SPEARFISH      LGT RAIN  43  43 100 NE5       30.07R VSB 1/4
WINNER         CLOUDY    53  51  93 NW8       29.95F
$$

SDZ004>011-016>023-039-040-240400-
NORTHEAST SOUTH DAKOTA

CITY           SKY/WX    TMP DP  RH WIND       PRES   REMARKS
ABERDEEN       LGT RAIN  54  54 100 NE5       29.98R
WATERTOWN      TSTM      56  56 100 NE3       29.98R VSB 3/4
BROOKINGS      CLOUDY    55  54  96 N14       29.94S
SISSETON         N/A     56  55  97 NW3       29.96R
$$

SDZ017-020-022-023-036>040-048>070-240400-
SOUTHEAST SOUTH DAKOTA

CITY           SKY/WX    TMP DP  RH WIND       PRES   REMARKS
SIOUX FALLS    CLOUDY    66  64  93 NW8       29.91R
HURON          LGT RAIN  55  55 100 CALM      29.93F
CHAMBERLAIN    CLOUDY    55  55 100 N5        29.95R
MITCHELL       LGT RAIN  57  57 100 E9        29.92F
YANKTON        PTCLDY    58  56  93 N12       29.91F
$$

ABBREVIATIONS USED IN REMARKS
   TC - TEMPERATURE IN CELSIUS
  WCI - WIND CHILL INDEX
   HX - HEAT INDEX
  VSB - VISIBILITY




USA.gov is the U.S. government's official web portal to all federal, state and local government web resources and services.